Weather History for Red Lake, ON

Change the Weather History Date:

Wednesday, January 23, 2013

  Actual Average Record
Temperature  
Mean Temperature -19 °F -  
Max Temperature -13 °F 12 °F 23 °F (1998)
Min Temperature -27 °F -9 °F -30 °F (2014)
Degree Days  
Heating Degree Days 84    
Moisture  
Dew Point -25 °F    
Average Humidity 65    
Maximum Humidity 77    
Minimum Humidity 41    
Precipitation  
Precipitation 0.00 in 0.03 in - ()
Sea Level Pressure  
Sea Level Pressure 30.40 in    
Wind  
Wind Speed 7 mph ()    
Max Wind Speed 14 mph    
Max Gust Speed 23 mph    
Visibility 9.8 miles    
Events Snow    
Averages and records for this station are not official NWS values.
T = Trace of Precipitation, MM = Missing Value Source: Averaged Metar Reports

Daily Weather History Graph

Daily Weather History Graph

Search for Another Location

Airport:

Trip Planner

Search our weather history database for the weather conditions in past years. The results will help you decide how hot, cold, wet, or windy it might be!

Date:

Astronomy

Jan. 23, 2013 Rise Set
Actual Time 8:03 AM CST 4:51 PM CST
Civil Twilight 7:26 AM CST 5:28 PM CST
Nautical Twilight 6:46 AM CST 6:08 PM CST
Astronomical Twilight 6:07 AM CST 6:47 PM CST
Moon 1:56 PM CST (1/23) 5:21 AM CST (1/23)
Length of Visible Light 10h 01m
Length of Day
8h 47m
Waxing Gibbous, 89% of the Moon is Illuminated
Jan 23
Waxing Gibbous
Jan 26
Full
Feb 3
Last Quarter
Feb 10
New
Feb 17
First Quarter

Hourly Weather History & Observations

Time (CST) Temp. Windchill Dew Point Humidity Pressure Visibility Wind Dir Wind Speed Gust Speed Precip Events Conditions
12:00 AM - - - %  in - Calm Calm - -  
4:00 AM -14.8 °F -27.2 °F -20.2 °F 77% 30.14 in 3.0 mi West 4.6 mph - N/A Snow Light Snow
5:00 AM -13.0 °F -27.0 °F -20.2 °F 70% 30.16 in 3.0 mi NW 5.8 mph - N/A Snow Light Snow
5:24 AM -13.0 °F -28.6 °F -20.2 °F 70% 30.17 in 2.0 mi NW 6.9 mph - N/A Snow Light Snow
6:00 AM -14 °F - -20 °F 62% 30.18 in 2 mi NNW 6.9 mph - -  
6:00 AM -13.0 °F -30.0 °F -20.2 °F 70% 30.18 in 2.5 mi NNW 8.1 mph - N/A Snow Light Snow
6:22 AM -13.0 °F -28.6 °F -20.2 °F 70% 30.19 in 3.0 mi NNW 6.9 mph - N/A Snow Light Snow
6:39 AM -13.0 °F -30.0 °F -20.2 °F 70% 30.20 in 2.5 mi NNW 8.1 mph 21.9 mph N/A Snow Light Snow
7:00 AM -13.0 °F -33.4 °F -22.0 °F 64% 30.22 in 4.0 mi North 11.5 mph 19.6 mph N/A Snow Light Snow
7:50 AM -14.8 °F -33.5 °F -22.0 °F 70% 30.26 in 2.0 mi North 9.2 mph 18.4 mph N/A Snow Light Snow
8:00 AM -16.6 °F -37.9 °F -23.8 °F 70% 30.27 in 2.0 mi NNW 11.5 mph - N/A Snow Light Snow
8:13 AM -16.6 °F -39.8 °F -23.8 °F 70% 30.28 in 8.0 mi North 13.8 mph 20.7 mph N/A Snow Low Drifting Snow
8:28 AM -16.6 °F -35.7 °F -25.6 °F 64% 30.30 in 15.0 mi North 9.2 mph 23.0 mph N/A Snow Ice Crystals
9:00 AM -16.6 °F -35.7 °F -25.6 °F 64% 30.33 in 15.0 mi North 9.2 mph 18.4 mph N/A Snow Ice Crystals
10:00 AM -16.6 °F -38.9 °F -25.6 °F 64% 30.38 in 15.0 mi North 12.7 mph 21.9 mph N/A Snow Ice Crystals
11:00 AM -16.6 °F -32.9 °F -25.6 °F 64% 30.43 in 15.0 mi North 6.9 mph 20.7 mph N/A Snow Ice Crystals
11:13 AM -16.6 °F -34.4 °F -25.6 °F 64% 30.43 in 15.0 mi NNW 8.1 mph - N/A Snow Ice Crystals
12:00 PM -16 °F - -26 °F 41% 30.45 in 15 mi NW 10.4 mph - - Snow Snow
12:00 PM -16.6 °F -37.9 °F -25.6 °F 64% 30.45 in 15.0 mi NNW 11.5 mph - N/A Snow Ice Crystals
1:00 PM -14.8 °F -33.5 °F -25.6 °F 58% 30.48 in 10.0 mi NNW 9.2 mph - N/A Snow Ice Crystals
2:00 PM -14.8 °F -35.6 °F -25.6 °F 58% 30.52 in 12.0 mi NNW 11.5 mph - N/A Snow Ice Crystals
3:00 PM -14.8 °F -33.5 °F -25.6 °F 58% 30.56 in 7.0 mi NW 9.2 mph - N/A Snow Ice Crystals
4:00 PM -16.6 °F -35.7 °F -25.6 °F 64% 30.60 in 15.0 mi NW 9.2 mph - N/A Snow Ice Crystals
5:00 PM -18.4 °F -36.6 °F -27.4 °F 63% 30.63 in 15.0 mi NW 8.1 mph - N/A   Ice Crystals
6:00 PM -20 °F - -28 °F 49% 30.64 in 15 mi NNW 3.5 mph - - Snow Snow
6:00 PM -20.2 °F -30.9 °F -27.4 °F 69% 30.64 in 15.0 mi North 3.5 mph - N/A   Clear
7:00 PM -22.0 °F - -29.2 °F 69% 30.66 in 15.0 mi WNW 2.3 mph - N/A   Ice Crystals
8:00 PM -25.6 °F -37.1 °F -31.0 °F 76% 30.69 in 15.0 mi West 3.5 mph - N/A   Ice Crystals
9:00 PM -27.4 °F -39.2 °F -32.8 °F 75% 30.71 in 15.0 mi WNW 3.5 mph - N/A   Ice Crystals